Location: Lawrence
(38.9720°N, 95.2350°W)
Time: 20:35:01
(UTC-06:00)

Amateur Radio Satellites - All Passes

Search period start: 22 February 2017 20:05
Search period end: 23 February 2017 20:05
Location: Lawrence, 38.9720°N, 95.2350°W

Satellite Date Start Highest point End Downlink Frequencies (MHz)
Time Altitude Azimuth
ZACube-1 22 Feb 20:12:35 20:16:56 64° 75° (ENE) 20:21:25 437.345
AAUSAT CUBESAT 2 22 Feb 20:16:31 20:20:34 51° 260° (W) 20:24:39 437.432
SEEDS 22 Feb 20:18:53 20:22:21 24° 265° (W) 20:25:49 437.485
YUBILEINY 22 Feb 20:25:56 20:31:43 19° 64° (ENE) 20:37:28 435.215
HO-68 22 Feb 20:35:44 20:41:10 23° 267° (W) 20:46:38 435.675
STRAND 1 22 Feb 20:37:33 20:42:12 35° 291° (WNW) 20:46:48 437.568
CUBEBUG 2 22 Feb 20:38:04 20:41:37 24° 266° (W) 20:45:18 437.445
DELFI C3 22 Feb 20:41:38 20:45:07 31° 72° (ENE) 20:48:38 145.870
PRISM 22 Feb 20:47:09 20:48:53 12° 92° (E) 20:50:37 437.425
AO-73 22 Feb 21:03:13 21:07:20 38° 263° (W) 21:11:32 145.935
RS-15 22 Feb 21:03:26 21:13:20 27° 332° (NNW) 21:23:25 29.354- 29.394
Oscar 11 22 Feb 21:14:07 21:18:01 32° 263° (W) 21:21:55 .
UWE-3 22 Feb 21:23:36 21:25:42 13° 270° (W) 21:27:50 435.000/436.395/437.385
UNISAT 6 22 Feb 21:36:37 21:40:15 22° 94° (E) 21:43:49 437.425
TIGRISAT 22 Feb 21:37:56 21:41:28 21° 94° (E) 21:44:58 435.000
ZACube-1 22 Feb 21:52:30 21:53:38 11° 271° (W) 21:54:47 437.345
FO-29 22 Feb 21:59:48 22:05:50 25° 90° (E) 22:11:27 435.910
DELFI C3 22 Feb 22:17:14 22:19:57 18° 266° (W) 22:22:41 145.870
PRISM 22 Feb 22:20:30 22:24:24 46° 287° (WNW) 22:28:18 437.425
YUBILEINY 22 Feb 22:20:54 22:29:40 86° 264° (W) 22:38:22 435.215
SO-50 22 Feb 22:41:05 22:45:36 48° 117° (ESE) 22:50:05 436.795
ESTCUBE 1 22 Feb 22:44:47 22:49:12 55° 74° (ENE) 22:53:37 437.505/2401.250
50 SAT 22 Feb 23:01:00 23:02:56 14° 67° (ENE) 23:04:51 437.505
DUCHIFAT 1 22 Feb 23:06:14 23:08:11 13° 92° (E) 23:10:07 145.980
EO-79 22 Feb 23:12:39 23:15:41 19° 94° (E) 23:18:43 145.935-145.965
UNISAT 6 22 Feb 23:12:42 23:17:00 36° 289° (WNW) 23:21:15 437.425
TIGRISAT 22 Feb 23:13:54 23:18:14 37° 289° (WNW) 23:22:31 435.000
VELOX 1 22 Feb 23:22:59 23:27:10 46° 73° (ENE) 23:31:23 145.980
RS-15 22 Feb 23:23:35 23:31:59 20° 8° (N) 23:40:19 29.354- 29.394
DX 1 22 Feb 23:25:08 23:28:27 22° 67° (ENE) 23:31:46 434.975-435.025
POLYITAN 1 22 Feb 23:28:40 23:32:25 29° 96° (E) 23:36:08 437.675
AIST 2D 22 Feb 23:30:12 23:33:41 51° 99° (E) 23:37:08 435.315
NANOSAT C BR1 22 Feb 23:30:59 23:34:40 28° 96° (E) 23:38:19 145.865
QB50P2 22 Feb 23:31:24 23:35:18 33° 97° (E) 23:39:10 145.880/145.840
O/OREOS (USA 219) 22 Feb 23:32:58 23:37:26 82° 290° (WNW) 23:41:57 437.305
UKube-1 22 Feb 23:42:52 23:46:20 24° 68° (ENE) 23:49:48 .
FO-29 22 Feb 23:43:44 23:51:20 62° 289° (WNW) 23:58:16 435.910
SPROUT 22 Feb 23:52:34 23:56:48 80° 75° (ENE) 00:01:05 437.525
BUGSAT 1 23 Feb 00:13:40 00:17:14 26° 96° (E) 00:20:47 437.445
YUBILEINY 23 Feb 00:20:34 00:25:03 15° 283° (WNW) 00:29:32 435.215
SO-50 23 Feb 00:22:44 00:26:18 21° 314° (NW) 00:29:50 436.795
ESTCUBE 1 23 Feb 00:24:15 00:26:18 13° 269° (W) 00:28:22 437.505/2401.250
50 SAT 23 Feb 00:32:39 00:35:47 30° 262° (W) 00:38:56 437.505
Oscar 19 23 Feb 00:37:34 00:40:13 14° 91° (E) 00:42:50 437.125/150
DUCHIFAT 1 23 Feb 00:39:59 00:44:07 50° 287° (WNW) 00:48:13 145.980
JUGNU 23 Feb 00:41:21 00:42:51 11° 183° (S) 00:44:20 437.505
EO-79 23 Feb 00:47:38 00:51:31 34° 289° (WNW) 00:55:23 145.935-145.965
Gurwin Techsat 1B 23 Feb 01:00:09 01:02:32 13° 90° (E) 01:04:55 435.225
DX 1 23 Feb 01:00:37 01:04:27 31° 263° (W) 01:08:17 434.975-435.025
VELOX 1 23 Feb 01:01:27 01:03:51 14° 268° (W) 01:06:15 145.980
POLYITAN 1 23 Feb 01:04:39 01:08:03 23° 292° (WNW) 01:11:26 437.675
NANOSAT C BR1 23 Feb 01:06:50 01:10:14 23° 292° (WNW) 01:13:38 145.865
QB50P2 23 Feb 01:07:42 01:10:50 20° 293° (WNW) 01:13:58 145.880/145.840
PCSat 23 Feb 01:15:10 01:19:45 27° 51° (NE) 01:24:18 145.827
UKube-1 23 Feb 01:18:35 01:22:14 27° 263° (W) 01:25:55 .
FO-29 23 Feb 01:31:57 01:34:41 12° 309° (NW) 01:37:22 435.910
SRMSAT 23 Feb 01:36:07 01:36:59 10° 173° (S) 01:37:51 437.500
RS-15 23 Feb 01:37:59 01:49:25 41° 41° (NE) 02:00:25 29.354- 29.394
BUGSAT 1 23 Feb 01:49:01 01:52:29 25° 291° (WNW) 01:55:56 437.445
ITUPSAT 1 23 Feb 01:50:40 01:55:08 40° 71° (ENE) 01:59:38 437.325
BEESAT 23 Feb 01:58:59 02:03:35 50° 72° (ENE) 02:08:14 436.000
Oscar 19 23 Feb 02:14:52 02:19:56 63° 287° (WNW) 02:24:58 437.125/150
Gurwin Techsat 1B 23 Feb 02:37:40 02:42:59 72° 285° (WNW) 02:48:16 435.225
ITAMSAT 1 23 Feb 02:43:13 02:47:18 23° 94° (E) 02:51:21 435.822/435.867
MOZHAYETS 4 23 Feb 02:44:13 02:48:41 49° 73° (ENE) 02:53:11
AO-7 23 Feb 02:55:30 03:02:19 27° 96° (E) 03:09:04 .
PCSat 23 Feb 02:58:10 03:03:18 44° 248° (WSW) 03:08:24 145.827
SRMSAT 23 Feb 03:23:34 03:25:13 11° 184° (S) 03:26:53 437.500
ITUPSAT 1 23 Feb 03:29:34 03:33:05 20° 266° (W) 03:36:37 437.325
KKS-1 23 Feb 03:35:01 03:39:13 44° 72° (ENE) 03:43:26 437.445
CUBESAT XI-V 23 Feb 03:36:55 03:40:52 28° 69° (ENE) 03:44:49 437.345
BEESAT 23 Feb 03:38:43 03:41:37 16° 268° (W) 03:44:33 436.000
RS-15 23 Feb 03:50:40 04:02:48 69° 246° (WSW) 04:14:22 29.354- 29.394
M-CUBED/EXP-1 PRIME 23 Feb 04:03:32 04:06:25 28° 67° (ENE) 04:09:16 437.505
STARS 23 Feb 04:16:28 04:20:44 56° 74° (ENE) 04:25:02 437.465
ITAMSAT 1 23 Feb 04:21:59 04:26:53 41° 290° (WNW) 04:31:45 435.822/435.867
MOZHAYETS 4 23 Feb 04:23:23 04:26:05 15° 268° (W) 04:28:48
AO-85 23 Feb 04:24:11 04:28:19 33° 115° (ESE) 04:32:12 145.980
AO-7 23 Feb 04:47:21 04:55:31 63° 293° (WNW) 05:03:37 .
KKS-1 23 Feb 05:13:23 05:15:59 15° 267° (W) 05:18:36 437.445
CUBESAT XI-V 23 Feb 05:14:10 05:18:09 27° 264° (W) 05:22:08 437.345
DOVE 4 23 Feb 05:25:21 05:28:21 17° 93° (E) 05:31:26 437.250
XW-2D 23 Feb 05:26:38 05:27:54 11° 91° (E) 05:29:09 145.860 - 145.880
XW-2B 23 Feb 05:31:11 05:32:55 13° 92° (E) 05:34:38 145.730 - 145.750
XW-2C 23 Feb 05:39:04 05:41:32 16° 93° (E) 05:43:58 145.795 - 145.815
M-CUBED/EXP-1 PRIME 23 Feb 05:39:26 05:40:59 13° 261° (W) 05:42:32 437.505
LilacSat-2 23 Feb 05:52:29 05:55:43 25° 96° (E) 05:58:54 437.200
STARS 23 Feb 05:55:49 05:57:25 12° 269° (W) 05:59:01 437.465
NUDT-PHONESAT 23 Feb 05:59:47 06:02:52 23° 95° (E) 06:05:53 437.300
AO-85 23 Feb 06:04:57 06:08:43 26° 309° (NW) 06:12:18 145.980
RS-15 23 Feb 06:07:48 06:12:44 13° 266° (W) 06:17:36 29.354- 29.394
STRAND 1 23 Feb 06:13:17 06:17:52 34° 69° (ENE) 06:22:28 437.568
HO-68 23 Feb 06:19:30 06:20:44 10° 87° (E) 06:21:58 435.675
AO-7 23 Feb 06:43:03 06:46:37 14° 313° (NW) 06:50:12 .
CUTE-I 23 Feb 06:50:23 06:55:48 90° 286° (WNW) 07:01:11 437.470
KAITUO 1B 23 Feb 06:55:01 06:58:46 63° 284° (WNW) 07:02:28 145.475/437.950
XW-2F 23 Feb 06:55:33 06:59:16 51° 285° (WNW) 07:02:56 145.980 - 146.000
XW-2D 23 Feb 06:58:40 07:02:19 44° 286° (WNW) 07:05:56 145.860 - 145.880
DOVE 4 23 Feb 07:01:43 07:06:12 49° 286° (WNW) 07:10:56 437.250
CUTE 1.7 + AOD 2 23 Feb 07:01:50 07:04:39 17° 93° (E) 07:07:25 437.475
XW-2B 23 Feb 07:03:42 07:07:17 39° 287° (WNW) 07:10:51 145.730 - 145.750
BEESAT 3 23 Feb 07:06:40 07:10:33 84° 301° (WNW) 07:14:31 437.485
XW-2C 23 Feb 07:12:23 07:15:47 30° 289° (WNW) 07:19:09 145.795 - 145.815
SO-50 23 Feb 07:13:41 07:17:42 31° 50° (NE) 07:21:41 436.795
LilacSat-2 23 Feb 07:26:56 07:29:50 21° 291° (WNW) 07:32:43 437.200
NUDT-PHONESAT 23 Feb 07:33:47 07:36:39 21° 291° (WNW) 07:39:30 437.300
UWE-3 23 Feb 07:37:14 07:39:19 13° 90° (E) 07:41:23 435.000/436.395/437.385
Tancredo 1 23 Feb 07:37:40 07:39:04 12° 128° (SE) 07:40:29 437.200
BEESAT 2 23 Feb 07:39:17 07:43:13 89° 120° (ESE) 07:47:14 435.950
XW-2A 23 Feb 07:52:09 07:55:35 64° 284° (WNW) 07:59:00 145.665 - 145.685
STRAND 1 23 Feb 07:52:43 07:57:02 27° 264° (W) 08:01:22 437.568
AAUSAT CUBESAT 2 23 Feb 08:00:09 08:03:33 25° 95° (E) 08:06:55 437.432
HO-68 23 Feb 08:02:21 08:09:31 74° 104° (ESE) 08:16:39 435.675
SEEDS 23 Feb 08:02:53 08:07:01 58° 100° (E) 08:11:06 437.485
ZACube-1 23 Feb 08:03:39 08:06:06 14° 91° (E) 08:08:32 437.345
O/OREOS (USA 219) 23 Feb 08:06:05 08:08:55 16° 56° (NE) 08:11:45 437.305
FO-29 23 Feb 08:14:24 08:16:14 11° 50° (NE) 08:18:05 435.910
CUBEBUG 2 23 Feb 08:28:44 08:33:31 77° 102° (ESE) 08:38:14 437.445
CUTE-I 23 Feb 08:33:10 08:35:02 12° 301° (WNW) 08:36:54 437.470
UNISAT 6 23 Feb 08:34:54 08:37:45 17° 65° (ENE) 08:40:38 437.425
TIGRISAT 23 Feb 08:36:08 08:38:50 16° 64° (ENE) 08:41:36 435.000
CUTE 1.7 + AOD 2 23 Feb 08:36:43 08:40:34 36° 288° (WNW) 08:44:25 437.475
ISS 23 Feb 08:40:14 08:43:28 56° 138° (SE) 08:46:43 437.550
AO-73 23 Feb 08:52:04 08:56:26 44° 98° (E) 09:00:42 145.935
SO-50 23 Feb 08:54:16 08:58:03 27° 247° (WSW) 09:01:48 436.795
Oscar 11 23 Feb 09:01:56 09:06:09 48° 99° (E) 09:10:19 .
PRISM 23 Feb 09:08:00 09:12:05 81° 257° (WSW) 09:16:11 437.425
UWE-3 23 Feb 09:11:31 09:16:08 59° 285° (WNW) 09:20:40 435.000/436.395/437.385
Tancredo 1 23 Feb 09:11:45 09:14:59 63° 323° (NW) 09:18:13 437.200
BEESAT 2 23 Feb 09:20:43 09:21:36 11° 319° (NW) 09:22:27 435.950
YUBILEINY 23 Feb 09:26:19 09:32:37 22° 80° (E) 09:38:53 435.215
AAUSAT CUBESAT 2 23 Feb 09:35:36 09:38:54 24° 291° (WNW) 09:42:12 437.432
ZACube-1 23 Feb 09:38:13 09:42:40 51° 286° (WNW) 09:47:01 437.345
SEEDS 23 Feb 09:40:45 09:42:11 12° 296° (WNW) 09:43:36 437.485
O/OREOS (USA 219) 23 Feb 09:44:11 09:48:38 52° 253° (WSW) 09:53:05 437.305
HO-68 23 Feb 09:51:26 09:56:30 21° 302° (WNW) 10:01:34 435.675
FO-29 23 Feb 09:52:41 09:59:28 57° 70° (ENE) 10:06:57 435.910
DELFI C3 23 Feb 09:54:01 09:57:54 60° 101° (E) 10:01:46 145.870
AIST 2D 23 Feb 10:04:29 10:06:44 16° 68° (ENE) 10:08:59 435.315
EO-79 23 Feb 10:05:08 10:07:00 13° 64° (ENE) 10:08:51 145.935-145.965
CUBEBUG 2 23 Feb 10:07:50 10:09:27 12° 298° (WNW) 10:11:02 437.445
UNISAT 6 23 Feb 10:09:45 10:14:02 46° 262° (W) 10:18:27 437.425
TIGRISAT 23 Feb 10:10:47 10:15:04 48° 261° (W) 10:19:31 435.000
ISS 23 Feb 10:17:35 10:20:09 21° 335° (NNW) 10:22:44 437.550
POLYITAN 1 23 Feb 10:20:35 10:23:36 19° 67° (ENE) 10:26:37 437.675
NANOSAT C BR1 23 Feb 10:22:29 10:25:22 18° 67° (ENE) 10:28:16 145.865
QB50P2 23 Feb 10:23:10 10:26:25 22° 68° (ENE) 10:29:41 145.880/145.840
AO-73 23 Feb 10:29:19 10:32:16 17° 295° (WNW) 10:35:11 145.935
Oscar 11 23 Feb 10:39:29 10:41:51 14° 295° (WNW) 10:44:11 .
ESTCUBE 1 23 Feb 10:40:19 10:42:14 12° 91° (E) 10:44:08 437.505/2401.250
Tancredo 1 23 Feb 10:49:59 10:51:48 14° 342° (NNW) 10:53:36 437.200
BUGSAT 1 23 Feb 11:03:11 11:05:36 16° 66° (ENE) 11:08:02 437.445
YUBILEINY 23 Feb 11:19:39 11:28:27 73° 279° (W) 11:37:17 435.215
DUCHIFAT 1 23 Feb 11:29:59 11:34:10 83° 257° (WSW) 11:38:24 145.980
AIST 2D 23 Feb 11:36:41 11:39:44 27° 264° (W) 11:42:49 435.315
EO-79 23 Feb 11:38:09 11:42:16 54° 260° (W) 11:46:26 145.935-145.965
FO-29 23 Feb 11:39:09 11:44:52 27° 269° (W) 11:51:06 435.910
SPROUT 23 Feb 11:40:49 11:43:17 15° 92° (E) 11:45:46 437.525
Oscar 19 23 Feb 11:52:57 11:56:37 20° 64° (ENE) 12:00:16 437.125/150
POLYITAN 1 23 Feb 11:55:16 11:59:07 34° 263° (W) 12:03:01 437.675
NANOSAT C BR1 23 Feb 11:56:57 12:00:48 35° 262° (W) 12:04:43 145.865
QB50P2 23 Feb 11:58:20 12:02:02 29° 263° (W) 12:05:46 145.880/145.840
50 SAT 23 Feb 11:59:08 12:01:28 17° 95° (E) 12:03:47 437.505
ESTCUBE 1 23 Feb 12:14:59 12:19:22 56° 286° (WNW) 12:23:43 437.505/2401.250
Gurwin Techsat 1B 23 Feb 12:19:32 12:23:19 20° 64° (ENE) 12:27:07 435.225
BUGSAT 1 23 Feb 12:36:50 12:40:37 39° 262° (W) 12:44:28 437.445
DX 1 23 Feb 12:49:16 12:53:28 46° 100° (E) 12:57:39 434.975-435.025
VELOX 1 23 Feb 12:50:07 12:54:31 72° 285° (WNW) 12:58:55 145.980
AO-85 23 Feb 12:56:52 12:59:41 19° 48° (NE) 13:02:31 145.980
UKube-1 23 Feb 13:05:54 13:10:07 50° 101° (E) 13:14:19 .
SPROUT 23 Feb 13:15:18 13:19:24 43° 287° (WNW) 13:23:28 437.525
YUBILEINY 23 Feb 13:22:57 13:26:56 14° 300° (WNW) 13:30:56 435.215
Oscar 19 23 Feb 13:30:34 13:35:33 48° 260° (W) 13:40:32 437.125/150
50 SAT 23 Feb 13:31:45 13:34:34 24° 289° (WNW) 13:37:23 437.505
ISS 23 Feb 13:33:42 13:35:17 13° 16° (NNE) 13:36:52 437.550
AO-7 23 Feb 13:53:08 14:00:30 36° 60° (ENE) 14:07:51 .
ITUPSAT 1 23 Feb 13:54:54 13:56:05 11° 90° (E) 13:57:16 437.325
Gurwin Techsat 1B 23 Feb 13:57:43 14:02:51 50° 260° (W) 14:08:02 435.225
ITAMSAT 1 23 Feb 13:59:51 14:04:24 31° 68° (ENE) 14:08:57 435.822/435.867
BEESAT 23 Feb 14:01:53 14:04:18 14° 91° (E) 14:06:42 436.000
Tancredo 1 23 Feb 14:04:21 14:06:36 17° 22° (NNE) 14:08:51 437.200
DX 1 23 Feb 14:26:41 14:29:15 15° 295° (WNW) 14:31:49 434.975-435.025
AO-85 23 Feb 14:36:34 14:40:11 36° 244° (WSW) 14:43:52 145.980
MOZHAYETS 4 23 Feb 14:42:20 14:44:17 12° 90° (E) 14:46:14
UKube-1 23 Feb 14:43:26 14:45:42 14° 296° (WNW) 14:47:58 .
ISS 23 Feb 15:09:11 15:12:24 48° 35° (NE) 15:15:34 437.550
BEESAT 3 23 Feb 15:24:40 15:28:26 36° 54° (NE) 15:32:08 437.485
ITUPSAT 1 23 Feb 15:29:35 15:34:24 72° 284° (WNW) 15:39:09 437.325
BEESAT 23 Feb 15:37:43 15:42:25 58° 287° (WNW) 15:47:05 436.000
ITAMSAT 1 23 Feb 15:39:16 15:43:47 30° 264° (W) 15:48:21 435.822/435.867
Tancredo 1 23 Feb 15:40:00 15:43:14 77° 220° (SW) 15:46:24 437.200
AO-7 23 Feb 15:44:52 15:52:56 51° 258° (WSW) 16:01:03 .
PCSat 23 Feb 15:55:50 16:00:23 28° 108° (ESE) 16:04:58 145.827
BEESAT 2 23 Feb 15:58:13 16:01:57 35° 53° (NE) 16:05:40 435.950
RS-15 23 Feb 16:03:05 16:11:22 23° 99° (E) 16:19:48 29.354- 29.394
STARS 23 Feb 16:09:19 16:10:38 11° 91° (E) 16:11:56 437.465
MOZHAYETS 4 23 Feb 16:17:16 16:21:48 58° 286° (WNW) 16:26:18
DOVE 4 23 Feb 16:31:31 16:33:11 12° 64° (ENE) 16:34:49 437.250
CUTE-I 23 Feb 16:33:34 16:36:52 17° 62° (ENE) 16:40:11 437.470
LilacSat-2 23 Feb 16:34:57 16:36:22 12° 65° (ENE) 16:37:46 437.200
ISS 23 Feb 16:46:27 16:48:34 16° 230° (SW) 16:50:40 437.550
BEESAT 3 23 Feb 17:03:00 17:05:45 18° 249° (WSW) 17:08:29 437.485
KKS-1 23 Feb 17:03:07 17:07:36 75° 286° (WNW) 17:12:04 437.445
CUBESAT XI-V 23 Feb 17:10:55 17:15:32 80° 102° (ESE) 17:20:08 437.345
M-CUBED/EXP-1 PRIME 23 Feb 17:16:08 17:19:28 29° 103° (ESE) 17:23:01 437.505
KAITUO 1B 23 Feb 17:33:33 17:37:11 46° 74° (ENE) 17:40:51 145.475/437.950
XW-2F 23 Feb 17:34:46 17:38:31 58° 75° (ENE) 17:42:19 145.980 - 146.000
BEESAT 2 23 Feb 17:36:34 17:39:29 19° 249° (WSW) 17:42:23 435.950
XW-2D 23 Feb 17:38:06 17:41:55 69° 75° (ENE) 17:45:46 145.860 - 145.880
PCSat 23 Feb 17:38:34 17:43:36 38° 305° (NW) 17:48:40 145.827
STARS 23 Feb 17:42:57 17:47:20 62° 286° (WNW) 17:51:42 437.465
XW-2B 23 Feb 17:43:04 17:46:54 78° 75° (ENE) 17:50:46 145.730 - 145.750
XW-2C 23 Feb 17:51:37 17:55:28 81° 259° (W) 17:59:20 145.795 - 145.815
CUTE 1.7 + AOD 2 23 Feb 17:54:49 17:56:16 12° 64° (ENE) 17:57:44 437.475
DOVE 4 23 Feb 18:06:22 18:10:25 51° 260° (W) 18:14:28 437.250
LilacSat-2 23 Feb 18:06:26 18:10:11 49° 261° (W) 18:13:58 437.200
RS-15 23 Feb 18:10:09 18:22:05 90° 120° (ESE) 18:34:31 29.354- 29.394
NUDT-PHONESAT 23 Feb 18:10:55 18:14:36 54° 261° (W) 18:18:19 437.300
CUTE-I 23 Feb 18:11:06 18:16:21 63° 258° (WSW) 18:21:41 437.470
XW-2A 23 Feb 18:22:30 18:25:29 30° 73° (ENE) 18:28:30 145.665 - 145.685
STRAND 1 23 Feb 18:26:50 18:28:50 12° 90° (E) 18:30:52 437.568
HO-68 23 Feb 18:29:23 18:36:12 49° 67° (ENE) 18:43:02 435.675
AAUSAT CUBESAT 2 23 Feb 18:50:00 18:52:24 15° 66° (ENE) 18:54:49 437.432
M-CUBED/EXP-1 PRIME 23 Feb 18:51:01 18:53:48 20° 295° (WNW) 18:56:41 437.505
CUBESAT XI-V 23 Feb 18:51:41 18:52:13 10° 298° (WNW) 18:52:44 437.345
SEEDS 23 Feb 18:53:13 18:57:02 33° 71° (ENE) 19:00:51 437.485
ZACube-1 23 Feb 19:00:18 19:00:53 10° 62° (ENE) 19:01:28 437.345
KAITUO 1B 23 Feb 19:10:26 19:11:27 11° 269° (W) 19:12:28 145.475/437.950
CUBEBUG 2 23 Feb 19:25:19 19:29:33 52° 74° (ENE) 19:33:59 437.445
CUTE 1.7 + AOD 2 23 Feb 19:27:19 19:31:33 62° 259° (W) 19:35:49 437.475
AO-73 23 Feb 19:46:13 19:50:04 30° 70° (ENE) 19:53:59 145.935
Oscar 11 23 Feb 19:55:26 19:59:18 32° 71° (ENE) 20:03:11 .
XW-2A 23 Feb 19:56:47 19:58:20 13° 267° (W) 19:59:55 145.665 - 145.685
